Home   Weather   London   Past weeks

Flag for Canada Past Weather in London, Ontario, Canada — Yesterday and Last 2 Weeks

Now
23 °F

Passing clouds.


Feels Like: 12 °F
Forecast: 18 / 26 °F
Wind: 10 mph from West

Location: London Weather Station

Current Time: Dec 10, 2016 at 5:50:37 am

Latest Report: Dec 10, 2016 at 5:00 am


Visibility: 15 mi

Pressure: 30.36 "Hg

Humidity: 74%

Dew Point: 16 °F

Location of LondonLocation

Past Weather in London — Graph

°F

London Temperature Yesterday

Maximum temperature yesterday: 28 °F (at 1:00 am)
Minimum temperature yesterday: 23 °F (at 9:00 pm)
Average temperature yesterday: 26 °F

High & Low Weather Summary for the Past Weeks

 TemperatureHumidityPressure
High55 °F (Nov 29, 1:00 pm)100% (Nov 25, 4:00 am)30.37 "Hg (Nov 25, 4:00 am)
Low23 °F (Dec 9, 9:00 pm)65% (Dec 2, 12:00 pm)29.49 "Hg (Nov 30, 6:00 pm)
Average36 °F87%30.00 "Hg
* Reported Nov 25 4:00 am — Dec 10 4:00 am, London, Weather by CustomWeather, © 2016

Note: Actual official high and low records may vary slightly from our data, if they occured in-between our weather recording intervals... More about our weather records

Advertising

London Weather History for the Previous 24 Hours

Scroll right to see more
 ConditionsComfort  
Time TempWeatherWind HumidityBarometerVisibility
4:00 am
Sat, Dec 10
23 °FPassing clouds.12 mph74%30.36 "Hg15 mi
3:00 am23 °FPassing clouds.12 mph74%30.36 "Hg15 mi
2:00 am23 °FOvercast.9 mph74%30.35 "Hg15 mi
1:00 am25 °FOvercast.12 mph74%30.35 "Hg15 mi
12:00 am25 °FPassing clouds.10 mph74%30.35 "Hg15 mi
11:00 pm
Fri, Dec 9
25 °FPassing clouds.10 mph74%30.35 "Hg15 mi
10:00 pm23 °FPartly cloudy.6 mph86%30.35 "Hg15 mi
9:00 pm23 °FSnow flurries. Mostly cloudy.8 mph93%30.37 "Hg1 mi
8:00 pm25 °FSnow flurries. Passing clouds.9 mph86%30.37 "Hg8 mi
7:00 pm25 °FSnow flurries. Overcast.6 mph86%30.37 "Hg12 mi
6:00 pm25 °FOvercast.6 mph80%30.36 "Hg15 mi
5:00 pm25 °FOvercast.9 mph86%30.35 "Hg12 mi
4:00 pm25 °FSnow flurries. Partly sunny.9 mph93%30.34 "Hg6 mi
3:00 pm25 °FSnow flurries. Mostly cloudy.15 mph93%30.33 "Hg1 mi
2:00 pm27 °FSnow flurries. Broken clouds.17 mph80%30.31 "Hg2 mi
1:00 pm27 °FSnow flurries. Broken clouds.7 mph74%30.30 "Hg12 mi
12:00 pm27 °FSnow flurries. Mostly cloudy.12 mph86%30.32 "Hg2 mi
11:46 am27 °FSnow flurries. Broken clouds.12 mph80%30.31 "Hg2 mi
11:00 am27 °FSnow flurries. Cloudy.14 mph80%30.32 "Hg2 mi
10:00 am25 °FSnow flurries. Partly sunny.2 mph93%30.31 "Hg2 mi
9:00 am25 °FSnow flurries. Partly sunny.2 mph86%30.29 "Hg2 mi
8:00 am25 °FSnow flurries. Broken clouds.8 mph93%30.27 "Hg10 mi
7:00 am27 °FHeavy snow. Low clouds.9 mph93%30.24 "Hg0 mi
6:00 am27 °FSnow flurries. Passing clouds.18 mph80%30.22 "Hg12 mi
5:45 am27 °FSnow flurries. Passing clouds.16 mph80%30.21 "Hg12 mi
5:00 am27 °FPassing clouds.14 mph80%30.20 "Hg15 mi
Weather by CustomWeather, © 2016

See weather overviewHow to use our weather pages